Weather Roundup
Issued by NWS Chicago, IL

Home | Current Version | Previous Version | Graphics & Text | Print | Product List | Glossary On
Versions: 1 2 3 4 5 6 7 8 9 10 11 12 13 14 15 16 17 18 19 20 21 22 23 24 25 26 27 28 29 30 31 32 33 34 35 36 37 38 39 40 41 42 43 44 45 46 47 48 49 50
000
NZUS59 KLOT 262209
HRRLOT

CHICAGO AREA WEATHER ROUNDUP
NATIONAL WEATHER SERVICE CHICAGO/ROMEOVILLE IL
500 PM CDT THU MAY 26 2016

NOTE: "FAIR" INDICATES FEW OR NO CLOUDS BELOW 12,000 FEET WITH NO
SIGNIFICANT WEATHER AND/OR OBSTRUCTIONS TO VISIBILITY.

* THESE STATIONS ARE NOT UNDER NWS QUALITY CONTROL. THEY ALSO MAY NOT
  REPORT WEATHER SUCH AS PRECIPITATION OR FOG.

ILZ005-006-012>014-019>023-262300-
NORTHEAST ILLINOIS

CITY           SKY/WX    TMP DP  RH WIND       PRES   REMARKS
OHARE          PTSUNNY   82  63  52 SW9       29.83F HX  83
MIDWAY         PTSUNNY   84  63  49 SW10      29.84F HX  85
AURORA         SUNNY     84  66  54 SW5       29.83F HX  86
LANSING*       MOSUNNY   82  62  50 SW9       29.86F HX  82
JOLIET*        PTSUNNY   86  65  49 S9G16     29.84S HX  87
WAUKEGAN       SUNNY     81  63  54 SW9       29.83S HX  82
DUPAGE AIRPORT SUNNY     83  63  50 SW8       29.83F HX  84
WHEELING       SUNNY     83  61  47 W10       29.84F HX  83
KANKAKEE*      MOSUNNY   85  65  50 SW12      29.87S HX  87
MORRIS*        SUNNY     87  59  37 SW9G16    29.82F HX  87
LEWIS AIRPORT* SUNNY     85  58  39 W7        29.84F HX  84
$$

WIZ051-052-058>065-066-070>072-262300-
SOUTHEAST WISCONSIN

CITY           SKY/WX    TMP DP  RH WIND       PRES   REMARKS
MILWAUKEE      PTSUNNY   83  61  47 W8G18     29.82F HX  83
KENOSHA*       PTSUNNY   82  64  54 W8        29.83F HX  83
RACINE*        SUNNY     83  61  47 W8        29.84F HX  83
BURLINGTON     SUNNY     82  57  42 W10       29.83F HX  82
WAUKESHA       MOSUNNY   81  55  41 W15       29.84F HX  80
WEST BEND      CLOUDY    81  54  39 W9G16     29.83S HX  80
$$

INZ001>003-010>013-019-020-262300-
NORTHWEST INDIANA

CITY           SKY/WX    TMP DP  RH WIND       PRES   REMARKS
GARY*          PTSUNNY   84  68  58 SW12      29.86F HX  87
MICHIGAN CITY* NOT AVBL
RENSSELAER*    NOT AVBL
VALPARAISO     MOSUNNY   83  60  45 SW13      29.88F HX  83
$$

LMZ740>746-262300-
SOUTHERN LAKE MICHIGAN

STATION/POSITION TIME  SKY/WX   TEMP WIND        PRES    VSBY
                                AIR  DIR/SP/G
                 (UTC)          (F)  (DEG/KT/KT) (MB)    (MI)
HARRISON CRIB    2100            81  220/ 10/ 11   N/A
BURNHAM HARBOR   2200            82  230/  9/ 12   N/A
CALUMET HARBOR   2100            83  230/ 10/ 16 1010.5F
BURNS HARBOR     2100            79  210/ 13/ 15 1011.5F
MICHIGAN CITY    2100            71  260/  4/  6   N/A
$$

ABBREVIATIONS USED IN REMARKS
   TC - TEMPERATURE IN CELSIUS
  WCI - WIND CHILL INDEX
   HX - HEAT INDEX
  VSB - VISIBILITY
$$




USA.gov is the U.S. government's official web portal to all federal, state and local government web resources and services.